Starlink 5622

operational
NORAD ID: 55358 Int'l Des: 2023-013 Owner: SPXS Country: US Constellation: starlink
LEOCIRCULAR

Über Starlink 5622

Beschreibung wird geladen...

Live-Position

3D-Globus wird geladen...

Nächste Überflüge

Höhenverlauf

Altitude vs Time

uPlot chart will show altitude changes over time

Zweizeiliger Elementsatz

1 55358U 23013AD 25351.19802261 -.00000004 00000-0 14781-4 0 9990
2 55358 43.0058 28.2986 0001369 261.6813 98.3874 15.02537362159300
Epoch: 17. Dez. 2025 • Age: 30 hours

Aktueller Status

Höhe 559.7 km
Geschwindigkeit 7.58 km/s
Subsatellitenpunkt -6.33°S, 121.96°E
Startdatum 26. Jan. 2023
Alter 2.8 years
Typ internet

Technische Details

Klassifizierung Payload
Masse 305.00 kg
Trockenmasse 290.00 kg
Gesamtmasse 305.00 kg
Länge 0.20 m
Durchmesser 2.80 m
Spannweite 9.00 m
Form Box + pan
Hersteller SPXS
Bus-Typ Starlink
Phasenstatus In Orbit
Besitzer/Staat SPXS/US

Große Konstellationen

Loading constellations...